Temp
-8 -9 -8 -8 -8 -8 -8 -8 -8 -9 -8 -9 -9 -9 -10 -10 -10 -9 -10 -10 -11 -11 -11 -11 -11 -11 -11 -10 -10 -10 -9 -8 -8 -9 -11 -11 -10 -11 -11 -11 -11 -10 -10 -10 -10
-8 -8 -8 -8 -8 -9 -8 -8 -8 -8 -9 -9 -9 -10 -11 -11 -10 -10 -11 -11 -11 -11 -12 -12 -12 -12 -12 -11 -11 -11 -10 -9 -9 -10 -11 -12 -11 -11 -10 -10 -10 -10 -10 -11 -11
-8 -8 -8 -9 -9 -8 -8 -8 -9 -9 -9 -9 -9 -10 -11 -11 -11 -11 -11 -11 -11 -12 -12 -12 -13 -13 -12 -12 -12 -12 -11 -11 -11 -11 -12 -12 -12 -11 -11 -10 -10 -11 -11 -11 -11
-9 -9 -8 -9 -8 -8 -8 -9 -9 -9 -9 -9 -10 -11 -11 -12 -11 -11 -12 -12 -12 -13 -13 -12 -13 -13 -13 -13 -13 -13 -12 -12 -11 -11 -12 -12 -13 -12 -11 -11 -12 -12 -11 -11 -11
-9 -9 -9 -8 -9 -9 -9 -9 -9 -9 -9 -10 -10 -11 -11 -11 -11 -12 -12 -13 -13 -13 -14 -14 -13 -13 -13 -14 -14 -13 -13 -13 -12 -12 -12 -12 -12 -12 -11 -12 -12 -12 -11 -10 -10
-9 -9 -8 -9 -9 -10 -9 -9 -9 -10 -10 -10 -11 -11 -11 -11 -11 -12 -12 -13 -14 -14 -14 -14 -14 -15 -14 -14 -14 -14 -14 -14 -14 -13 -12 -12 -12 -13 -11 -12 -12 -12 -12 -11 -10
-9 -8 -8 -9 -9 -9 -10 -10 -10 -10 -11 -11 -11 -12 -12 -12 -12 -12 -13 -13 -14 -15 -15 -15 -15 -15 -15 -15 -15 -14 -14 -14 -14 -14 -14 -13 -12 -11 -12 -13 -13 -12 -12 -12 -11
-9 -8 -8 -8 -9 -10 -11 -11 -11 -11 -11 -12 -12 -12 -13 -12 -12 -13 -13 -14 -15 -15 -15 -15 -16 -15 -15 -15 -15 -15 -15 -14 -14 -14 -14 -15 -13 -12 -12 -13 -13 -13 -13 -12 -12
-8 -8 -9 -9 -9 -10 -10 -11 -11 -12 -12 -12 -12 -12 -11 -12 -13 -13 -14 -14 -14 -15 -16 -16 -17 -18 -18 -18 -18 -17 -15 -15 -14 -15 -15 -15 -13 -13 -13 -12 -13 -13 -13 -13 -13
-9 -9 -9 -9 -10 -10 -10 -11 -12 -11 -12 -12 -12 -12 -12 -13 -14 -14 -16 -17 -18 -18 -18 -20 -20 -20 -20 -20 -20 -19 -20 -18 -16 -16 -17 -16 -14 -14 -14 -13 -12 -13 -13 -13 -13
-9 -9 -10 -10 -10 -10 -10 -10 -11 -12 -12 -11 -11 -11 -12 -13 -16 -19 -19 -21 -23 -24 -24 -24 -24 -24 -24 -23 -23 -22 -21 -20 -18 -18 -18 -17 -15 -14 -14 -14 -13 -13 -13 -13 -13
-9 -10 -10 -10 -11 -11 -11 -10 -11 -12 -12 -12 -12 -13 -14 -16 -19 -21 -23 -25 -26 -27 -27 -27 -27 -27 -27 -27 -26 -25 -24 -22 -20 -20 -22 -19 -16 -15 -15 -15 -14 -14 -13 -13 -13
-10 -10 -11 -11 -11 -12 -12 -12 -12 -12 -13 -13 -13 -15 -17 -20 -22 -25 -27 -28 -30 -31 -31 -31 -30 -30 -30 -29 -28 -27 -27 -26 -24 -22 -21 -22 -19 -16 -17 -16 -15 -14 -14 -14 -14
-10 -11 -11 -11 -12 -13 -13 -13 -13 -13 -14 -14 -16 -20 -22 -24 -26 -29 -31 -32 -33 -33 -34 -33 -33 -32 -32 -32 -32 -29 -29 -27 -27 -24 -23 -24 -23 -19 -18 -18 -16 -15 -15 -14 -14
-11 -12 -12 -11 -12 -13 -13 -13 -13 -14 -14 -15 -18 -21 -24 -28 -30 -31 -33 -34 -35 -35 -35 -34 -34 -34 -33 -33 -33 -31 -31 -30 -29 -27 -25 -23 -24 -20 -21 -19 -18 -16 -15 -15 -14
-12 -12 -12 -13 -13 -13 -14 -14 -14 -13 -14 -16 -20 -23 -26 -28 -31 -33 -34 -35 -35 -35 -35 -35 -35 -35 -33 -33 -32 -31 -31 -31 -31 -29 -27 -24 -25 -23 -23 -21 -19 -18 -17 -16 -16
-12 -13 -13 -13 -13 -13 -14 -14 -14 -15 -16 -18 -21 -25 -28 -29 -31 -33 -34 -35 -35 -35 -35 -34 -34 -34 -33 -32 -32 -32 -32 -31 -31 -30 -29 -26 -26 -24 -23 -22 -22 -20 -18 -17 -17
-13 -13 -13 -13 -14 -14 -14 -15 -15 -16 -17 -20 -24 -27 -30 -30 -31 -32 -34 -35 -35 -35 -35 -34 -33 -33 -32 -32 -31 -31 -31 -31 -30 -29 -28 -27 -26 -25 -23 -22 -21 -21 -19 -19 -18
-13 -13 -14 -14 -15 -15 -15 -15 -16 -16 -19 -23 -26 -28 -29 -31 -32 -33 -34 -34 -35 -35 -35 -34 -33 -33 -32 -31 -31 -31 -30 -30 -29 -28 -28 -27 -26 -25 -24 -23 -21 -21 -21 -20 -19
-14 -14 -14 -15 -15 -15 -15 -16 -17 -19 -23 -27 -27 -29 -30 -31 -32 -33 -33 -34 -34 -34 -35 -34 -32 -32 -31 -31 -31 -30 -29 -29 -29 -28 -27 -26 -26 -26 -24 -23 -21 -21 -21 -21 -20
-14 -14 -15 -15 -16 -16 -16 -17 -19 -21 -25 -27 -28 -29 -31 -30 -33 -33 -33 -33 -33 -33 -34 -32 -32 -31 -30 -30 -30 -30 -28 -28 -27 -27 -26 -26 -26 -26 -25 -25 -23 -22 -22 -20 -20
-15 -15 -15 -16 -16 -16 -17 -18 -20 -24 -27 -27 -28 -29 -31 -31 -32 -32 -33 -33 -33 -33 -32 -31 -30 -29 -30 -30 -30 -28 -27 -27 -27 -26 -26 -26 -26 -26 -24 -24 -24 -23 -22 -21 -21
-15 -16 -16 -16 -16 -17 -18 -19 -21 -25 -27 -27 -28 -29 -31 -32 -31 -33 -33 -33 -33 -31 -31 -30 -30 -30 -30 -30 -29 -28 -26 -26 -26 -26 -25 -25 -24 -25 -25 -24 -23 -22 -21 -22 -21
-16 -16 -16 -17 -17 -18 -18 -20 -23 -26 -27 -28 -28 -29 -29 -31 -32 -32 -32 -32 -32 -31 -30 -30 -30 -30 -30 -29 -27 -26 -26 -25 -26 -25 -25 -25 -24 -25 -24 -23 -22 -22 -22 -22 -21
-16 -17 -17 -17 -18 -18 -19 -21 -23 -25 -27 -28 -29 -29 -29 -30 -31 -31 -32 -33 -32 -31 -30 -30 -30 -30 -29 -29 -27 -26 -25 -25 -25 -24 -24 -24 -23 -24 -23 -23 -22 -22 -22 -22 -22
-17 -17 -17 -18 -18 -19 -20 -21 -23 -26 -27 -28 -28 -29 -30 -31 -31 -31 -31 -31 -31 -31 -29 -29 -30 -29 -29 -28 -27 -27 -25 -24 -25 -24 -24 -23 -23 -22 -22 -23 -22 -22 -22 -22 -22
-17 -17 -17 -18 -19 -19 -20 -22 -23 -26 -28 -28 -28 -29 -30 -31 -31 -31 -31 -31 -30 -29 -29 -29 -29 -29 -28 -28 -27 -27 -25 -24 -24 -24 -23 -22 -21 -22 -22 -22 -22 -22 -21 -21 -22
Height
5810 5807 5804 5802 5799 5795 5792 5788 5785 5782 5779 5775 5770 5766 5762 5758 5753 5747 5745 5743 5740 5737 5735 5732 5728 5724 5723 5722 5722 5720 5719 5724 5728 5730 5732 5728 5729 5730 5733 5736 5739 5743 5749 5756 5759
5806 5803 5801 5798 5795 5790 5786 5781 5777 5774 5769 5763 5758 5754 5750 5747 5740 5736 5734 5731 5726 5722 5720 5717 5713 5710 5708 5709 5706 5706 5707 5715 5718 5718 5719 5717 5719 5719 5723 5725 5730 5734 5739 5745 5749
5803 5800 5796 5793 5788 5783 5779 5773 5768 5763 5758 5753 5748 5744 5741 5735 5729 5725 5721 5717 5713 5708 5704 5701 5697 5694 5693 5692 5690 5691 5695 5702 5703 5703 5704 5706 5708 5708 5712 5717 5721 5726 5730 5735 5742
5798 5794 5791 5786 5782 5777 5772 5766 5761 5755 5748 5742 5738 5732 5726 5721 5714 5708 5704 5700 5696 5691 5687 5683 5680 5677 5676 5674 5675 5670 5685 5682 5688 5687 5689 5693 5695 5698 5701 5710 5711 5715 5718 5723 5729
5793 5789 5784 5779 5774 5769 5763 5757 5751 5743 5737 5731 5725 5719 5713 5707 5697 5692 5686 5681 5678 5673 5668 5664 5662 5657 5657 5657 5653 5653 5670 5664 5671 5672 5674 5674 5680 5684 5690 5699 5702 5702 5707 5711 5718
5788 5782 5777 5772 5766 5761 5754 5747 5740 5733 5726 5718 5712 5706 5700 5690 5683 5676 5669 5663 5658 5655 5650 5646 5641 5636 5636 5637 5632 5638 5638 5646 5648 5655 5657 5659 5666 5664 5683 5685 5689 5692 5696 5701 5708
5780 5776 5770 5764 5757 5751 5743 5735 5728 5719 5712 5705 5698 5690 5681 5673 5663 5656 5649 5643 5635 5631 5625 5619 5616 5612 5610 5613 5611 5613 5610 5618 5628 5636 5640 5643 5647 5656 5673 5668 5673 5681 5686 5691 5698
5774 5768 5762 5755 5748 5741 5733 5724 5715 5707 5699 5691 5681 5671 5662 5653 5643 5634 5624 5617 5608 5603 5598 5591 5582 5581 5578 5578 5579 5581 5583 5591 5612 5617 5615 5615 5630 5652 5649 5651 5659 5668 5676 5682 5687
5766 5760 5753 5746 5739 5731 5723 5714 5704 5693 5687 5676 5665 5654 5641 5625 5616 5603 5591 5585 5575 5568 5559 5551 5548 5544 5544 5538 5540 5549 5554 5561 5579 5585 5587 5590 5614 5626 5632 5636 5645 5651 5662 5670 5678
5758 5751 5744 5734 5728 5720 5711 5701 5690 5679 5669 5657 5646 5635 5616 5601 5584 5566 5556 5546 5535 5528 5524 5515 5512 5508 5511 5508 5501 5521 5515 5527 5542 5557 5560 5565 5587 5604 5612 5618 5629 5636 5645 5656 5666
5750 5742 5734 5725 5716 5707 5699 5690 5681 5667 5654 5641 5626 5612 5596 5578 5548 5531 5519 5509 5495 5489 5481 5482 5481 5478 5478 5475 5475 5481 5485 5492 5514 5526 5529 5539 5560 5578 5584 5595 5607 5620 5627 5639 5652
5742 5733 5724 5714 5704 5694 5683 5672 5662 5652 5636 5620 5604 5585 5563 5542 5525 5503 5485 5473 5464 5459 5453 5452 5451 5448 5448 5449 5449 5455 5457 5467 5485 5501 5504 5510 5526 5546 5553 5573 5588 5600 5610 5623 5634
5732 5722 5714 5704 5693 5681 5670 5661 5648 5634 5621 5599 5576 5555 5530 5513 5496 5475 5460 5453 5444 5437 5431 5430 5430 5424 5421 5423 5427 5430 5434 5447 5453 5474 5483 5486 5496 5519 5531 5548 5561 5577 5597 5607 5618
5722 5712 5703 5695 5685 5673 5660 5647 5633 5619 5602 5579 5553 5523 5505 5488 5474 5458 5446 5438 5434 5426 5420 5419 5416 5411 5408 5406 5406 5407 5417 5426 5435 5451 5456 5472 5474 5493 5507 5524 5538 5557 5574 5592 5605
5713 5703 5693 5682 5673 5661 5650 5636 5621 5606 5582 5557 5535 5511 5487 5469 5452 5452 5440 5433 5427 5423 5416 5413 5404 5397 5398 5398 5399 5401 5401 5405 5418 5428 5438 5452 5455 5468 5486 5501 5519 5540 5557 5574 5587
5704 5694 5684 5673 5661 5650 5636 5623 5607 5591 5568 5550 5519 5494 5478 5465 5451 5442 5436 5430 5421 5416 5413 5405 5399 5392 5390 5393 5394 5395 5393 5394 5406 5414 5412 5434 5439 5448 5466 5487 5507 5521 5535 5554 5565
5694 5684 5674 5664 5653 5640 5625 5611 5593 5575 5548 5527 5507 5483 5467 5456 5446 5437 5431 5425 5416 5405 5399 5397 5394 5391 5389 5391 5392 5389 5387 5388 5397 5401 5400 5424 5427 5431 5459 5484 5500 5512 5523 5536 5546
5685 5675 5665 5654 5641 5629 5615 5598 5582 5560 5537 5515 5495 5480 5464 5448 5445 5436 5428 5421 5415 5406 5396 5391 5390 5389 5389 5389 5389 5387 5388 5390 5397 5401 5405 5416 5408 5424 5456 5477 5492 5496 5505 5517 5529
5676 5666 5656 5644 5632 5618 5603 5586 5568 5544 5521 5502 5490 5475 5461 5449 5438 5430 5424 5417 5409 5403 5396 5389 5390 5390 5390 5391 5388 5388 5390 5393 5396 5399 5404 5406 5412 5430 5447 5465 5479 5489 5495 5504 5516
5668 5657 5648 5634 5621 5606 5591 5574 5552 5532 5513 5498 5482 5468 5454 5444 5437 5427 5419 5412 5405 5400 5396 5392 5390 5391 5393 5393 5391 5389 5391 5394 5396 5399 5403 5405 5412 5426 5440 5455 5469 5483 5494 5500 5509
5660 5648 5638 5625 5612 5596 5580 5560 5540 5521 5506 5496 5483 5470 5456 5445 5436 5426 5419 5413 5405 5401 5397 5393 5393 5395 5395 5394 5391 5390 5389 5392 5394 5398 5402 5405 5411 5415 5434 5453 5466 5479 5485 5495 5506
5651 5641 5629 5617 5605 5587 5569 5552 5533 5516 5504 5494 5483 5469 5456 5446 5438 5428 5420 5412 5407 5402 5399 5398 5396 5396 5397 5396 5392 5389 5390 5392 5395 5399 5403 5406 5408 5409 5430 5448 5457 5469 5482 5492 5504
5644 5632 5621 5610 5597 5581 5560 5543 5529 5514 5504 5494 5482 5471 5459 5447 5438 5430 5424 5417 5411 5406 5405 5403 5401 5401 5400 5399 5394 5392 5394 5393 5396 5402 5405 5408 5407 5409 5424 5444 5457 5470 5479 5488 5498
5638 5625 5613 5600 5587 5574 5557 5539 5525 5510 5501 5491 5482 5473 5464 5456 5443 5434 5428 5420 5414 5411 5411 5409 5406 5404 5402 5399 5398 5398 5398 5397 5401 5405 5405 5406 5407 5412 5429 5442 5455 5470 5480 5487 5494
5631 5619 5607 5595 5580 5564 5549 5533 5520 5510 5500 5491 5480 5470 5462 5456 5450 5440 5433 5428 5421 5418 5417 5416 5412 5410 5406 5404 5402 5403 5403 5403 5404 5407 5408 5410 5411 5419 5434 5447 5457 5469 5480 5488 5495
5624 5613 5602 5588 5574 5559 5543 5529 5515 5505 5498 5492 5481 5470 5462 5453 5448 5441 5434 5428 5424 5423 5422 5420 5419 5416 5414 5411 5408 5408 5408 5408 5408 5410 5416 5415 5417 5423 5437 5450 5461 5473 5481 5487 5494
5617 5607 5595 5580 5568 5553 5539 5523 5511 5502 5493 5488 5481 5472 5464 5457 5450 5443 5435 5429 5426 5426 5425 5424 5423 5422 5421 5419 5416 5417 5414 5414 5417 5417 5421 5420 5424 5435 5445 5456 5465 5474 5480 5488 5494
Wind_Speed
23 24 27 28 31 33 35 37 37 38 40 42 42 43 44 43 45 47 48 48 48 49 50 49 51 51 52 52 51 51 52 47 42 40 28 32 38 40 41 44 47 50 48 45 44
26 29 31 33 35 38 39 41 42 44 45 45 46 43 42 43 49 50 49 50 52 52 52 53 51 52 54 54 55 56 56 50 43 40 35 35 39 42 42 43 44 46 47 48 46
27 33 35 37 39 40 42 45 47 46 48 52 50 46 46 46 51 54 54 54 55 57 57 57 56 56 58 57 58 58 58 51 50 48 41 41 42 42 43 42 41 43 44 43 42
33 36 38 38 40 41 46 48 48 51 52 53 53 51 51 54 59 60 59 59 59 59 61 63 62 63 61 63 59 63 55 58 53 52 51 47 45 45 46 41 39 42 44 43 40
34 35 39 41 42 44 47 49 53 55 55 56 55 54 55 58 63 63 64 64 64 65 66 65 66 68 69 66 67 66 58 60 58 57 55 55 53 52 49 44 43 43 46 47 43
34 38 43 44 46 48 50 52 56 59 57 57 57 58 60 65 67 70 71 71 70 68 69 70 70 71 72 72 74 72 70 65 64 63 62 61 59 59 51 50 50 48 47 47 44
37 41 44 46 49 51 53 56 58 60 57 60 62 64 66 70 74 77 78 77 76 74 75 77 76 77 78 78 79 79 79 76 71 67 65 65 65 64 53 57 56 52 50 49 46
41 43 46 49 51 52 55 58 58 58 59 61 66 69 73 77 81 85 86 85 85 84 87 90 88 91 88 85 87 87 88 85 75 72 74 73 67 58 62 60 59 57 55 53 50
44 47 51 55 54 57 56 58 59 62 65 68 73 78 84 91 92 93 96 100 103 99 92 91 89 81 80 83 85 84 87 85 81 79 79 80 73 68 68 68 60 61 59 57 55
48 50 53 55 57 57 58 61 63 68 70 74 79 85 93 95 103 109 102 97 92 90 86 82 79 79 76 81 88 81 90 88 85 82 84 87 78 74 73 72 69 64 61 60 59
49 51 54 57 57 57 60 63 65 70 75 80 87 92 98 111 107 101 95 84 77 74 74 72 71 70 72 77 82 85 91 94 85 85 89 88 82 78 80 79 74 72 68 63 61
53 53 55 57 57 61 64 67 71 75 80 87 91 108 111 108 101 91 84 76 71 66 65 64 65 69 71 72 75 78 85 89 90 89 86 90 87 83 86 81 78 76 74 67 64
54 57 57 57 61 64 67 70 74 79 84 92 108 110 106 99 87 75 68 63 57 51 46 44 41 43 45 54 66 76 75 77 83 87 94 90 89 87 89 87 85 81 75 73 68
56 58 57 59 64 64 69 73 77 83 90 103 104 99 91 83 68 56 49 46 41 40 38 35 33 34 34 35 34 52 67 75 75 81 89 82 83 88 88 88 90 85 81 77 72
58 58 58 63 66 68 71 74 79 87 106 107 103 94 80 63 54 41 36 37 36 32 36 36 38 37 28 26 23 29 36 54 70 73 82 86 91 93 85 89 88 87 82 79 78
59 58 60 64 67 69 72 76 84 93 104 104 96 81 67 53 42 37 33 31 36 37 32 33 27 23 24 12 13 14 26 33 45 60 75 83 77 96 84 73 85 84 86 81 82
58 60 62 66 68 71 74 81 90 97 103 100 90 71 57 47 38 35 35 35 39 45 40 23 4 10 12 2 13 17 15 22 41 40 60 70 72 81 80 77 54 70 80 81 80
59 62 64 67 69 72 77 85 92 99 102 92 71 59 50 47 38 38 36 36 36 38 37 16 4 5 4 8 16 15 15 16 22 23 23 53 71 68 69 70 45 41 64 76 78
60 63 64 67 69 73 80 88 95 102 96 75 59 56 53 47 43 41 38 38 37 36 35 22 4 6 3 7 9 15 13 18 20 18 17 30 56 57 61 60 61 28 43 54 70
61 63 64 67 70 75 84 91 97 96 74 55 57 56 54 50 42 39 39 40 35 30 26 19 5 2 1 4 6 6 17 17 23 19 11 11 28 51 43 68 70 42 31 38 41
62 63 64 67 70 77 86 92 92 84 60 51 52 52 50 53 40 37 36 34 30 24 18 13 3 6 9 17 7 9 15 16 19 16 16 13 15 32 55 41 55 59 40 42 38
60 61 64 67 71 80 87 91 88 64 48 48 49 49 48 49 42 35 36 32 28 20 11 9 9 13 10 15 5 5 11 13 16 17 16 13 11 22 48 34 26 55 50 37 39
60 61 64 68 73 80 86 86 80 55 42 45 48 48 44 44 43 34 33 29 24 14 9 13 12 8 9 7 5 4 2 4 8 11 15 9 23 17 49 35 39 48 34 31 35
59 60 65 69 76 81 83 82 73 47 40 44 46 45 43 39 36 33 28 26 17 12 11 18 19 20 24 16 4 9 7 11 7 5 18 12 33 29 38 40 54 38 24 28 31
59 60 64 69 76 80 82 81 66 48 36 40 41 44 43 40 38 26 21 13 15 7 14 17 22 24 22 23 17 14 7 12 10 8 14 36 39 36 34 37 48 43 23 28 31
59 60 64 70 75 78 80 77 66 42 33 35 38 39 38 39 37 36 22 15 7 3 16 15 15 19 20 17 16 14 13 15 8 2 9 53 56 68 40 36 37 36 28 30 29
59 61 65 71 74 77 78 78 64 44 33 33 36 36 34 33 33 34 29 21 6 7 13 14 15 17 18 19 21 13 17 8 18 12 28 56 56 33 38 32 26 32 25 27 28
Wind_Direction
335 340 339 336 334 330 328 324 320 318 316 312 308 304 300 297 293 290 289 288 287 285 282 279 277 275 272 268 266 263 263 263 268 269 268 248 247 244 244 241 240 243 241 240 240
334 335 333 332 329 326 326 324 319 317 315 315 312 306 302 299 296 292 291 287 285 283 281 277 272 267 267 266 264 265 267 267 263 266 259 250 248 247 243 242 244 245 243 239 237
329 330 331 329 327 325 322 320 318 318 315 313 311 308 305 300 296 296 292 288 286 282 277 275 270 268 268 265 263 262 264 265 255 254 253 249 246 244 244 239 240 245 245 244 244
324 327 327 327 325 323 321 318 317 317 315 313 312 312 308 305 299 299 296 290 284 280 277 274 273 273 271 268 262 260 264 258 255 248 249 246 244 241 242 238 232 234 240 240 234
326 325 325 324 322 320 318 320 318 316 315 313 312 309 306 302 299 298 294 290 286 282 278 275 273 271 270 270 267 264 263 258 253 250 244 245 242 240 238 237 233 227 232 234 231
326 325 325 321 319 322 322 319 316 314 313 311 312 309 306 301 301 296 293 289 285 281 279 276 273 271 268 266 266 266 262 257 253 250 246 241 241 239 237 235 233 230 229 232 233
324 322 320 320 321 322 320 318 317 313 314 313 310 308 305 303 298 295 292 289 285 282 280 278 275 273 272 267 265 263 262 260 254 252 249 245 239 240 238 234 234 231 228 230 229
323 322 324 321 319 320 320 317 317 315 313 313 312 308 304 301 297 295 293 290 290 288 286 284 282 279 276 271 267 263 262 260 257 254 251 247 242 237 236 236 234 232 231 229 227
325 323 322 319 317 317 319 319 317 317 319 316 312 310 308 304 301 298 296 297 296 294 289 284 279 270 265 259 253 254 260 257 255 247 245 245 245 236 234 237 232 233 231 230 230
322 321 319 316 317 317 318 320 320 319 318 316 313 310 306 306 303 303 304 301 295 290 284 277 270 265 259 251 250 245 246 244 246 244 240 239 242 241 235 233 234 233 231 228 229
320 320 321 321 320 320 320 319 319 318 319 317 313 310 308 307 308 310 305 299 292 286 280 272 266 259 253 248 246 244 240 239 236 239 241 236 238 235 235 230 229 232 231 228 225
319 321 323 322 321 323 322 322 321 321 319 317 315 313 314 313 314 309 304 299 293 287 281 275 270 264 257 251 249 246 243 239 235 234 237 238 232 231 229 230 229 226 230 231 226
320 323 324 323 325 326 326 324 324 323 322 319 319 319 318 318 315 310 303 300 298 299 297 293 284 275 270 258 252 247 246 243 239 233 233 236 236 228 226 224 225 224 222 228 228
324 324 323 326 326 327 326 326 326 325 323 325 325 324 321 318 316 311 311 311 311 312 311 310 304 294 276 270 261 248 244 242 240 234 232 230 237 231 227 224 224 221 220 220 225
324 324 326 328 328 328 327 328 326 327 324 328 325 326 325 322 322 322 318 319 318 320 318 318 312 300 288 281 271 263 251 239 236 236 235 228 233 229 232 225 223 219 219 217 219
325 326 329 329 328 328 329 328 328 330 330 328 330 330 327 331 332 333 331 326 320 319 315 318 320 312 300 293 303 291 263 248 227 234 232 228 232 231 228 231 223 221 220 216 219
326 328 330 328 329 330 329 329 332 334 331 333 335 333 338 341 344 340 339 336 329 327 326 341 15 327 305 297 275 290 285 248 218 227 238 228 232 235 230 228 235 232 221 217 218
329 330 329 329 330 330 331 332 335 334 335 337 339 343 345 341 345 348 340 334 333 334 334 357 117 16 222 287 314 241 253 204 214 247 262 236 233 232 227 222 215 215 222 222 222
329 329 329 330 330 332 333 335 336 337 338 340 347 352 354 346 342 342 343 341 336 337 336 340 65 38 270 359 346 205 216 215 220 216 221 232 231 230 223 215 206 198 201 211 218
330 328 329 330 332 334 335 337 340 340 342 348 352 357 359 350 350 344 347 347 345 344 345 342 117 351 334 81 27 191 217 214 227 230 238 229 229 225 217 212 211 209 204 197 210
329 329 330 332 333 335 337 340 343 344 343 352 357 358 359 354 353 345 353 356 359 12 357 11 51 57 98 55 130 172 220 220 220 227 260 272 250 214 214 225 228 218 234 204 209
329 328 331 332 335 336 339 342 344 345 346 352 356 359 1 358 358 359 1 358 5 20 21 42 51 103 87 47 66 176 197 216 233 202 216 230 232 212 197 193 195 219 224 183 181
328 330 332 333 336 339 341 343 345 343 344 350 355 358 3 3 357 0 1 8 11 21 64 62 74 93 96 59 27 267 200 276 197 202 200 249 159 193 173 180 200 211 181 186 198
328 331 332 335 336 339 342 344 345 340 344 349 353 355 359 5 359 6 9 4 19 14 55 86 82 89 78 71 70 48 34 84 135 178 214 241 143 165 165 181 200 190 160 176 179
328 332 333 335 337 339 343 344 344 339 338 346 350 352 355 359 8 15 19 12 354 13 91 91 85 75 82 73 72 67 63 126 122 102 130 140 146 163 169 183 201 198 191 173 176
329 332 333 335 338 340 343 344 344 338 335 345 351 352 355 352 359 12 28 17 21 19 109 91 71 80 92 95 92 87 88 116 132 240 113 132 144 144 156 173 195 190 165 166 175
329 332 333 335 338 340 342 343 342 338 335 346 352 355 357 353 352 0 22 21 25 153 134 82 80 91 89 102 100 112 113 115 130 138 134 128 138 152 157 173 179 177 175 174 177